Temp
-13 -13 -13 -12 -12 -11 -11 -11 -11 -10 -10 -10 -10 -10 -10 -11 -11 -11 -11 -11 -11 -10 -9 -9 -9 -9 -9 -9 -9 -10 -10 -9 -9 -10 -9 -9 -9 -8 -8 -8 -7 -7 -7 -7 -8 -7 -7 -5 -5 -5 -5 -5 -5 -5
-13 -13 -13 -12 -12 -12 -12 -11 -11 -11 -10 -10 -10 -10 -11 -11 -11 -11 -11 -11 -12 -11 -9 -9 -9 -8 -8 -9 -10 -10 -9 -9 -10 -9 -9 -9 -9 -8 -8 -8 -8 -8 -7 -7 -6 -6 -5 -5 -5 -5 -5 -5 -5 -6
-13 -13 -13 -13 -13 -12 -12 -11 -11 -11 -11 -11 -11 -11 -11 -11 -11 -11 -11 -12 -12 -12 -9 -8 -8 -10 -9 -9 -10 -9 -8 -8 -9 -10 -9 -9 -9 -8 -8 -8 -8 -8 -8 -8 -7 -5 -6 -5 -5 -5 -5 -6 -6 -6
-14 -13 -13 -13 -13 -12 -12 -12 -12 -11 -11 -11 -11 -11 -11 -11 -11 -11 -11 -12 -12 -12 -11 -7 -8 -7 -8 -8 -8 -7 -8 -9 -8 -9 -9 -9 -9 -9 -9 -8 -9 -8 -8 -6 -8 -6 -5 -5 -5 -6 -7 -7 -7 -6
-14 -14 -13 -13 -13 -12 -12 -12 -12 -12 -11 -12 -11 -11 -11 -11 -12 -12 -11 -11 -11 -11 -11 -8 -7 -8 -7 -8 -8 -9 -8 -8 -8 -9 -9 -9 -8 -9 -8 -9 -5 -6 -5 -7 -6 -6 -7 -6 -5 -7 -7 -6 -7 -7
-15 -14 -14 -13 -12 -12 -11 -12 -12 -12 -12 -12 -11 -11 -11 -12 -12 -12 -11 -11 -10 -11 -11 -8 -7 -6 -7 -7 -7 -7 -8 -8 -8 -8 -8 -8 -8 -9 -9 -7 -3 -5 -6 -7 -7 -6 -7 -6 -5 -6 -7 -6 -6 -7
-15 -15 -14 -13 -13 -12 -12 -11 -11 -12 -12 -12 -11 -11 -12 -12 -12 -11 -11 -11 -10 -10 -12 -10 -8 -6 -6 -6 -7 -7 -8 -9 -9 -9 -9 -9 -9 -9 -9 -8 -3 -5 -6 -7 -7 -6 -6 -7 -6 -7 -7 -7 -7 -6
-17 -15 -14 -14 -13 -13 -12 -12 -11 -11 -11 -11 -11 -11 -12 -12 -13 -10 -10 -11 -11 -12 -12 -11 -9 -8 -7 -7 -7 -7 -8 -9 -9 -9 -9 -9 -9 -8 -8 -4 -5 -6 -6 -6 -6 -6 -6 -6 -6 -7 -7 -7 -7 -6
-18 -16 -15 -14 -13 -13 -12 -12 -11 -11 -11 -11 -11 -11 -12 -12 -11 -9 -11 -11 -11 -12 -12 -9 -8 -8 -7 -7 -8 -8 -9 -8 -8 -9 -8 -9 -8 -8 -6 -6 -6 -6 -6 -5 -5 -6 -6 -7 -7 -7 -7 -6 -7 -6
-18 -18 -16 -15 -14 -14 -13 -12 -12 -11 -11 -11 -11 -12 -12 -11 -11 -11 -10 -10 -10 -10 -11 -10 -8 -8 -8 -7 -8 -9 -9 -9 -9 -9 -9 -8 -6 -5 -6 -5 -5 -6 -6 -6 -6 -6 -6 -7 -7 -7 -7 -7 -7 -7
-19 -18 -17 -15 -15 -14 -13 -12 -12 -12 -12 -12 -13 -13 -12 -11 -10 -10 -10 -9 -9 -9 -9 -8 -8 -8 -7 -8 -8 -8 -9 -9 -10 -8 -9 -9 -5 -5 -5 -6 -6 -6 -7 -7 -7 -8 -8 -8 -8 -8 -8 -8 -8 -8
-19 -19 -18 -16 -15 -15 -14 -13 -12 -12 -13 -14 -14 -13 -12 -12 -11 -9 -9 -9 -9 -8 -8 -7 -6 -7 -8 -8 -8 -8 -8 -8 -8 -9 -9 -8 -5 -6 -6 -6 -7 -7 -7 -7 -7 -7 -8 -9 -9 -9 -9 -9 -9 -8
-19 -19 -19 -17 -16 -15 -14 -13 -13 -13 -14 -14 -14 -13 -12 -11 -11 -9 -9 -9 -8 -7 -6 -6 -6 -8 -9 -8 -8 -8 -8 -9 -9 -9 -9 -6 -6 -6 -7 -7 -7 -7 -7 -7 -8 -9 -9 -9 -10 -10 -10 -9 -9 -9
-19 -19 -19 -18 -17 -16 -15 -14 -14 -14 -15 -14 -14 -13 -11 -10 -9 -9 -8 -8 -7 -7 -6 -6 -6 -9 -9 -8 -8 -8 -8 -9 -9 -9 -7 -6 -7 -7 -7 -7 -7 -7 -7 -8 -9 -9 -10 -10 -10 -10 -10 -10 -10 -10
-19 -19 -20 -19 -17 -16 -15 -15 -15 -15 -15 -14 -14 -12 -11 -10 -9 -8 -8 -7 -7 -8 -7 -7 -7 -9 -8 -8 -8 -8 -8 -8 -8 -7 -6 -7 -7 -7 -7 -7 -8 -7 -8 -8 -9 -10 -10 -11 -11 -11 -11 -11 -11 -11
-19 -19 -20 -19 -18 -18 -17 -15 -16 -16 -15 -14 -13 -12 -11 -10 -9 -8 -8 -8 -8 -8 -8 -8 -8 -8 -8 -8 -8 -8 -8 -8 -7 -7 -7 -7 -8 -8 -7 -8 -8 -8 -9 -9 -10 -10 -10 -11 -11 -11 -11 -11 -11 -11
-19 -19 -20 -19 -19 -19 -18 -16 -16 -16 -15 -15 -13 -11 -11 -10 -9 -8 -9 -9 -8 -8 -8 -8 -8 -8 -8 -8 -8 -8 -7 -7 -7 -7 -8 -8 -8 -8 -8 -9 -9 -9 -10 -10 -11 -11 -10 -11 -11 -12 -12 -12 -12 -12
-19 -19 -20 -20 -19 -19 -18 -17 -17 -16 -16 -14 -13 -12 -10 -10 -10 -9 -8 -8 -8 -8 -8 -8 -8 -8 -7 -7 -7 -7 -7 -7 -8 -8 -8 -8 -8 -8 -9 -9 -9 -10 -10 -11 -11 -11 -11 -11 -11 -11 -11 -11 -11 -12
-19 -20 -20 -20 -19 -19 -18 -17 -17 -16 -15 -14 -13 -12 -11 -10 -10 -10 -9 -8 -8 -8 -8 -8 -8 -8 -8 -7 -8 -8 -7 -8 -8 -8 -8 -9 -9 -9 -10 -10 -10 -11 -11 -11 -11 -12 -11 -11 -11 -11 -12 -12 -12 -12
-20 -20 -20 -19 -19 -19 -18 -16 -16 -16 -14 -13 -12 -12 -11 -10 -10 -10 -9 -9 -9 -9 -8 -8 -8 -8 -8 -8 -8 -8 -8 -8 -9 -9 -9 -9 -9 -10 -10 -11 -11 -11 -11 -11 -12 -11 -11 -11 -11 -11 -12 -12 -12 -12
-20 -20 -20 -20 -19 -19 -17 -15 -15 -14 -13 -12 -11 -11 -11 -10 -10 -10 -10 -9 -9 -9 -9 -8 -8 -8 -8 -8 -8 -9 -9 -9 -9 -9 -10 -10 -10 -11 -11 -11 -11 -11 -12 -12 -12 -11 -12 -12 -12 -12 -12 -12 -12 -12
-20 -20 -20 -19 -19 -19 -16 -14 -14 -13 -13 -12 -11 -11 -11 -11 -10 -10 -9 -9 -9 -9 -9 -9 -9 -9 -9 -9 -9 -9 -9 -10 -10 -10 -10 -11 -11 -11 -11 -11 -12 -12 -12 -12 -12 -12 -12 -12 -12 -12 -12 -12 -12 -12
-20 -20 -19 -19 -19 -17 -15 -14 -13 -13 -13 -12 -12 -11 -11 -10 -10 -10 -10 -10 -9 -9 -9 -9 -9 -9 -9 -9 -9 -9 -10 -10 -11 -11 -11 -11 -11 -11 -12 -12 -12 -12 -12 -12 -12 -12 -12 -12 -12 -12 -13 -12 -12 -12
-20 -19 -19 -18 -17 -16 -14 -13 -13 -12 -12 -11 -11 -11 -11 -11 -10 -11 -10 -10 -9 -9 -9 -9 -9 -9 -9 -9 -9 -10 -10 -11 -11 -11 -11 -11 -11 -12 -12 -12 -12 -12 -12 -12 -12 -12 -12 -12 -13 -13 -13 -12 -13 -13
-20 -19 -17 -16 -15 -15 -14 -13 -12 -12 -11 -11 -11 -11 -11 -11 -11 -11 -10 -9 -9 -9 -9 -9 -9 -9 -9 -9 -10 -11 -11 -11 -11 -11 -11 -11 -12 -12 -12 -12 -12 -12 -12 -12 -12 -13 -13 -13 -13 -13 -13 -13 -13 -13
-18 -17 -16 -14 -14 -15 -13 -12 -12 -11 -11 -11 -12 -11 -11 -11 -11 -11 -10 -9 -10 -9 -9 -9 -9 -9 -10 -10 -11 -11 -11 -11 -11 -11 -11 -11 -11 -11 -12 -12 -12 -12 -12 -13 -13 -13 -13 -13 -13 -13 -13 -13 -13 -14
-17 -15 -14 -14 -14 -13 -14 -12 -12 -11 -11 -11 -11 -11 -11 -11 -11 -10 -9 -9 -10 -10 -10 -10 -10 -10 -10 -11 -11 -11 -11 -11 -11 -11 -11 -12 -12 -12 -11 -12 -12 -12 -12 -13 -13 -13 -14 -14 -13 -13 -13 -14 -14 -14
-15 -14 -14 -13 -13 -12 -12 -12 -12 -12 -11 -11 -11 -11 -11 -11 -10 -10 -9 -9 -10 -10 -10 -10 -10 -11 -11 -11 -11 -11 -11 -11 -11 -11 -11 -12 -12 -12 -12 -12 -13 -13 -13 -13 -13 -14 -14 -14 -14 -14 -14 -14 -14 -15
-14 -14 -13 -13 -12 -12 -12 -12 -12 -11 -11 -11 -10 -10 -11 -10 -10 -9 -9 -10 -10 -10 -10 -10 -10 -10 -11 -11 -11 -11 -11 -12 -12 -12 -12 -12 -12 -12 -13 -13 -13 -13 -13 -14 -14 -14 -14 -14 -14 -14 -14 -14 -15 -15
-14 -13 -13 -12 -12 -12 -12 -11 -11 -11 -11 -11 -11 -10 -10 -10 -10 -10 -10 -10 -10 -10 -11 -11 -11 -11 -11 -11 -11 -11 -11 -11 -12 -12 -12 -12 -12 -12 -13 -13 -13 -14 -14 -14 -14 -14 -14 -14 -14 -14 -15 -15 -15 -16
-13 -13 -13 -12 -12 -11 -11 -11 -11 -11 -11 -11 -11 -11 -11 -11 -10 -10 -10 -11 -11 -11 -11 -11 -11 -11 -11 -11 -12 -12 -12 -12 -13 -13 -13 -13 -13 -13 -13 -14 -14 -14 -14 -14 -14 -14 -14 -14 -15 -15 -15 -16 -16 -16
-13 -13 -12 -12 -12 -12 -12 -12 -12 -11 -11 -11 -12 -11 -11 -11 -11 -11 -11 -11 -11 -11 -11 -11 -12 -12 -12 -12 -12 -12 -12 -12 -13 -13 -13 -14 -14 -14 -14 -14 -14 -14 -15 -15 -15 -15 -15 -15 -15 -16 -16 -16 -16 -17
-13 -13 -12 -12 -12 -12 -12 -12 -12 -12 -12 -12 -12 -12 -12 -11 -11 -11 -11 -11 -11 -11 -12 -12 -12 -12 -12 -12 -13 -13 -13 -13 -13 -14 -14 -14 -14 -14 -14 -14 -14 -15 -15 -15 -15 -15 -15 -16 -16 -16 -17 -17 -17 -17
Height
2919 2924 2928 2933 2938 2942 2947 2952 2958 2964 2969 2973 2977 2982 2986 2988 2991 2995 3000 3001 3003 3006 3010 3011 3014 3016 3017 3017 3020 3023 3024 3023 3025 3027 3027 3025 3022 3021 3019 3019 3022 3023 3024 3020 3021 3018 3007 3004 3003 3001 2997 2993 2993 2988
2913 2918 2923 2928 2934 2938 2943 2949 2955 2961 2966 2970 2974 2979 2982 2985 2988 2992 2995 2998 2999 3001 3005 3006 3008 3010 3012 3013 3015 3015 3019 3020 3022 3021 3021 3020 3018 3016 3015 3012 3014 3015 3013 3014 3013 3001 3002 3000 2995 2993 2989 2984 2980 2979
2909 2913 2918 2923 2929 2935 2941 2945 2950 2957 2963 2967 2971 2975 2979 2981 2985 2990 2991 2993 2994 2995 2999 2999 3002 3004 3003 3005 3009 3009 3012 3014 3016 3017 3017 3016 3014 3013 3009 3006 3006 3006 3008 3005 3002 2988 2993 2983 2983 2980 2976 2971 2967 2964
2905 2909 2913 2918 2924 2931 2937 2941 2947 2953 2959 2964 2968 2972 2975 2978 2981 2985 2986 2989 2992 2992 2993 2994 2994 2995 2999 2999 3000 3003 3005 3008 3009 3010 3010 3009 3008 3007 3000 3000 2997 2996 2996 2990 2985 2982 2979 2970 2968 2967 2962 2958 2955 2950
2902 2906 2910 2914 2920 2926 2931 2937 2943 2949 2954 2959 2964 2968 2972 2974 2977 2981 2982 2984 2987 2992 2991 2988 2992 2994 2995 2995 2996 2999 3000 3001 3003 3003 3002 3001 3001 3001 2995 2993 2980 2986 2983 2983 2972 2973 2970 2958 2955 2957 2952 2947 2944 2940
2900 2904 2907 2911 2915 2920 2926 2932 2938 2944 2949 2954 2959 2964 2968 2971 2972 2976 2979 2983 2986 2986 2985 2983 2981 2986 2989 2990 2991 2993 2995 2997 2997 2996 2995 2993 2995 2997 2990 2979 2970 2975 2976 2973 2965 2961 2957 2952 2948 2947 2941 2937 2933 2928
2898 2901 2905 2908 2912 2916 2921 2927 2932 2938 2944 2949 2953 2959 2963 2966 2968 2974 2981 2982 2982 2981 2981 2982 2977 2976 2980 2982 2983 2985 2987 2988 2990 2990 2987 2987 2989 2991 2982 2972 2965 2970 2967 2964 2961 2956 2947 2947 2937 2936 2933 2928 2923 2917
2894 2898 2902 2905 2909 2913 2918 2922 2927 2932 2938 2943 2949 2954 2957 2960 2963 2969 2976 2981 2978 2980 2981 2979 2977 2975 2977 2977 2979 2979 2980 2982 2982 2982 2981 2980 2983 2981 2971 2963 2962 2962 2957 2956 2953 2949 2943 2937 2932 2927 2923 2917 2909 2903
2891 2894 2898 2902 2906 2910 2914 2919 2923 2927 2932 2938 2943 2947 2950 2953 2957 2967 2973 2975 2973 2975 2974 2971 2972 2973 2972 2973 2974 2976 2976 2976 2977 2975 2974 2976 2973 2966 2960 2960 2958 2955 2951 2947 2944 2940 2936 2930 2923 2916 2910 2903 2894 2887
2888 2890 2894 2899 2903 2907 2911 2915 2920 2923 2928 2933 2938 2942 2945 2950 2957 2964 2966 2966 2966 2963 2962 2963 2968 2969 2972 2971 2971 2974 2973 2973 2970 2969 2968 2965 2958 2958 2959 2956 2953 2950 2946 2942 2936 2930 2924 2918 2910 2902 2895 2888 2881 2874
2884 2888 2891 2895 2899 2903 2908 2912 2916 2921 2925 2929 2933 2937 2945 2950 2954 2957 2959 2958 2958 2954 2952 2956 2960 2964 2967 2968 2968 2969 2968 2967 2966 2965 2964 2959 2953 2954 2954 2952 2949 2946 2941 2936 2930 2923 2915 2906 2897 2890 2885 2879 2873 2866
2880 2884 2887 2891 2896 2900 2904 2909 2913 2918 2921 2925 2930 2936 2943 2947 2950 2951 2948 2948 2946 2948 2949 2949 2953 2957 2960 2963 2964 2964 2964 2964 2962 2962 2960 2953 2950 2950 2949 2948 2945 2941 2935 2929 2922 2915 2907 2899 2893 2886 2880 2874 2869 2862
2876 2880 2884 2888 2892 2896 2900 2905 2909 2914 2919 2924 2930 2935 2938 2942 2941 2939 2936 2936 2938 2941 2942 2945 2948 2950 2954 2958 2959 2960 2959 2960 2959 2957 2952 2948 2946 2946 2945 2943 2941 2935 2928 2921 2914 2908 2902 2896 2890 2884 2879 2874 2868 2862
2873 2877 2880 2884 2888 2892 2897 2901 2906 2911 2918 2923 2927 2930 2932 2929 2928 2927 2931 2935 2937 2939 2942 2942 2943 2947 2949 2952 2954 2954 2955 2954 2952 2949 2945 2944 2944 2943 2942 2938 2934 2928 2922 2916 2910 2906 2900 2896 2891 2887 2882 2878 2873 2868
2869 2873 2877 2880 2884 2889 2893 2897 2902 2908 2913 2918 2922 2921 2919 2921 2922 2924 2927 2931 2932 2935 2937 2939 2941 2944 2946 2949 2948 2949 2949 2945 2943 2940 2941 2941 2941 2940 2938 2934 2929 2924 2920 2916 2911 2906 2904 2901 2897 2893 2889 2885 2882 2877
2866 2870 2874 2878 2881 2886 2889 2893 2898 2904 2908 2912 2911 2910 2914 2916 2919 2922 2924 2926 2929 2931 2934 2937 2938 2940 2941 2942 2942 2941 2940 2937 2937 2938 2938 2938 2937 2936 2934 2931 2928 2925 2922 2918 2915 2912 2912 2909 2906 2901 2898 2895 2891 2888
2862 2866 2872 2876 2879 2882 2886 2890 2896 2898 2902 2902 2901 2907 2910 2913 2916 2919 2921 2923 2926 2927 2929 2931 2932 2934 2935 2935 2934 2933 2933 2934 2934 2935 2935 2935 2934 2933 2931 2929 2927 2925 2923 2921 2920 2918 2917 2913 2910 2908 2904 2900 2899 2896
2857 2864 2868 2872 2876 2879 2881 2886 2890 2893 2891 2893 2897 2904 2908 2910 2912 2914 2916 2919 2922 2922 2924 2926 2927 2927 2928 2927 2928 2930 2931 2931 2931 2931 2931 2931 2930 2929 2928 2927 2927 2925 2924 2923 2922 2921 2919 2918 2917 2913 2910 2908 2905 2903
2854 2860 2865 2869 2872 2875 2878 2882 2884 2887 2887 2892 2895 2901 2904 2906 2909 2910 2912 2914 2917 2918 2918 2919 2922 2921 2922 2924 2926 2927 2928 2928 2928 2928 2928 2927 2927 2926 2925 2926 2925 2925 2925 2925 2924 2924 2923 2921 2919 2916 2914 2912 2911 2908
2851 2857 2861 2865 2869 2872 2877 2881 2883 2885 2886 2889 2892 2897 2900 2902 2905 2906 2907 2908 2911 2913 2913 2913 2915 2917 2920 2922 2923 2924 2924 2924 2924 2924 2924 2923 2923 2923 2923 2924 2924 2926 2926 2926 2926 2926 2925 2923 2921 2919 2917 2914 2912 2910
2848 2853 2859 2861 2865 2869 2871 2873 2874 2878 2884 2884 2887 2890 2894 2897 2900 2902 2903 2904 2906 2907 2908 2910 2913 2915 2917 2919 2920 2920 2920 2920 2920 2920 2920 2920 2920 2921 2922 2924 2926 2927 2927 2928 2928 2927 2926 2924 2922 2920 2918 2915 2913 2911
2844 2850 2855 2859 2863 2866 2867 2868 2871 2874 2880 2881 2883 2886 2889 2892 2895 2897 2900 2901 2901 2903 2905 2907 2909 2912 2914 2915 2916 2915 2916 2916 2917 2917 2917 2918 2920 2921 2921 2924 2926 2928 2929 2929 2929 2928 2927 2925 2923 2921 2918 2916 2914 2911
2844 2848 2852 2857 2860 2862 2865 2866 2869 2871 2875 2877 2879 2882 2884 2887 2890 2893 2894 2895 2897 2899 2901 2903 2905 2907 2910 2910 2911 2912 2913 2914 2914 2915 2916 2918 2920 2921 2923 2925 2927 2928 2929 2929 2929 2928 2927 2925 2923 2921 2919 2916 2915 2913
2842 2846 2850 2853 2853 2857 2858 2860 2860 2864 2869 2873 2874 2878 2881 2883 2886 2888 2889 2891 2894 2896 2897 2899 2901 2903 2904 2905 2907 2909 2910 2912 2914 2915 2917 2918 2920 2922 2924 2926 2927 2928 2928 2929 2928 2927 2926 2924 2922 2920 2918 2916 2915 2913
2841 2846 2847 2847 2849 2852 2852 2855 2858 2860 2862 2868 2871 2874 2877 2880 2882 2883 2884 2887 2890 2892 2893 2895 2897 2899 2900 2902 2904 2906 2909 2912 2914 2917 2918 2920 2921 2923 2925 2926 2927 2927 2927 2927 2927 2926 2924 2923 2921 2919 2917 2916 2914 2913
2836 2837 2839 2839 2843 2847 2849 2848 2848 2854 2859 2864 2868 2872 2874 2876 2878 2879 2880 2883 2885 2888 2890 2892 2894 2896 2898 2900 2904 2906 2909 2912 2914 2916 2918 2920 2921 2922 2923 2924 2925 2925 2925 2925 2924 2923 2921 2920 2918 2917 2916 2915 2914 2912
2830 2830 2833 2835 2839 2843 2849 2848 2851 2854 2857 2861 2864 2868 2871 2873 2874 2876 2877 2879 2882 2884 2887 2890 2893 2896 2899 2901 2904 2907 2910 2912 2914 2916 2918 2919 2920 2921 2922 2922 2922 2923 2922 2922 2921 2920 2919 2918 2917 2916 2914 2914 2912 2911
2825 2826 2828 2833 2836 2843 2845 2847 2850 2853 2856 2858 2862 2866 2868 2870 2872 2873 2875 2878 2880 2882 2885 2889 2892 2894 2897 2901 2904 2907 2909 2911 2913 2915 2917 2918 2918 2919 2920 2920 2920 2920 2920 2919 2918 2917 2916 2915 2914 2914 2913 2912 2911 2911
2821 2823 2827 2831 2836 2841 2844 2846 2848 2850 2854 2857 2860 2862 2865 2868 2870 2872 2873 2876 2878 2881 2884 2887 2890 2893 2896 2899 2902 2905 2907 2910 2912 2913 2914 2915 2916 2917 2917 2917 2918 2917 2917 2916 2915 2914 2914 2913 2913 2912 2912 2911 2911 2910
2820 2823 2827 2831 2835 2839 2841 2844 2847 2850 2853 2855 2858 2861 2864 2866 2868 2870 2871 2874 2876 2879 2883 2886 2890 2893 2896 2899 2901 2904 2906 2908 2910 2911 2912 2913 2914 2914 2914 2915 2915 2914 2914 2913 2912 2912 2911 2911 2911 2911 2910 2910 2909 2908
2821 2825 2829 2831 2835 2837 2840 2843 2846 2849 2851 2854 2857 2860 2862 2864 2866 2868 2870 2872 2875 2878 2881 2884 2888 2892 2895 2898 2901 2903 2906 2907 2908 2909 2910 2910 2911 2911 2912 2912 2911 2911 2910 2909 2909 2909 2909 2909 2909 2909 2908 2908 2907 2906
2822 2824 2827 2830 2834 2837 2840 2842 2845 2847 2849 2852 2854 2857 2859 2861 2863 2866 2868 2870 2873 2877 2880 2884 2887 2891 2894 2896 2898 2900 2902 2904 2905 2906 2907 2908 2908 2908 2908 2908 2908 2907 2907 2906 2906 2906 2906 2906 2906 2906 2906 2906 2905 2904
2823 2825 2829 2831 2834 2836 2839 2842 2843 2845 2848 2849 2852 2854 2856 2859 2861 2864 2866 2869 2873 2875 2879 2883 2886 2889 2892 2895 2897 2898 2900 2901 2902 2903 2904 2905 2905 2906 2906 2905 2905 2905 2904 2904 2904 2903 2904 2904 2904 2904 2904 2904 2903 2902
Wind_Speed
26 26 24 23 22 24 27 27 26 27 25 24 23 21 19 18 19 21 20 20 21 22 21 20 18 18 18 17 13 5 8 7 9 11 13 15 13 16 18 24 20 23 20 26 19 23 22 31 16 23 24 36 46 47
25 25 27 27 24 22 22 24 31 27 24 23 23 22 21 20 18 19 20 19 20 22 18 13 13 13 18 14 13 17 13 15 5 7 11 9 13 15 20 16 13 21 27 29 24 32 32 33 40 46 53 49 50 46
23 24 26 27 27 23 23 24 30 33 27 25 25 23 22 20 19 17 19 20 22 24 23 22 8 7 17 15 12 18 12 16 18 25 25 21 22 26 34 32 31 29 28 36 37 54 49 54 50 45 44 46 42 41
21 21 23 26 27 28 29 25 25 32 33 27 25 25 23 22 20 19 21 21 21 24 26 19 16 21 20 24 26 20 22 21 18 19 22 26 31 25 35 37 40 44 42 47 48 49 40 43 37 38 41 40 39 40
16 17 20 25 28 29 31 31 28 31 33 32 31 28 26 24 23 21 24 24 22 21 21 23 13 3 2 5 3 15 13 18 19 25 28 34 33 33 39 39 45 38 36 39 45 36 39 43 38 38 39 38 38 39
15 16 17 20 25 29 32 33 34 34 33 33 32 31 26 21 17 20 22 19 17 20 26 26 15 10 16 21 24 24 18 23 25 28 30 33 32 31 29 44 32 34 31 34 42 37 38 40 40 38 41 41 40 41
15 15 16 17 19 21 25 31 35 36 36 35 31 28 28 27 23 19 12 6 8 5 16 11 15 12 8 9 12 14 19 24 26 29 36 36 35 29 40 49 21 33 38 34 33 38 44 40 42 37 36 39 41 44
16 17 17 17 17 18 20 22 26 31 34 33 30 28 29 29 29 22 13 16 23 19 22 13 19 24 18 16 10 11 13 15 23 25 33 34 29 28 38 27 31 35 36 35 37 35 35 38 41 44 45 48 51 52
16 17 18 17 17 17 17 18 19 22 26 28 30 31 31 31 29 15 11 17 24 27 20 11 16 17 12 14 13 12 12 15 18 23 26 21 29 33 38 36 37 37 36 33 32 35 39 43 46 51 53 54 57 54
17 17 18 18 17 16 16 16 16 17 20 24 25 26 27 26 19 14 15 19 25 31 31 31 27 20 18 17 11 12 11 16 9 16 16 25 38 32 26 23 23 24 27 30 37 42 46 50 55 55 50 45 43 44
23 20 19 18 17 17 17 17 16 15 17 20 21 23 16 12 11 13 13 18 17 17 22 32 34 31 22 16 11 8 6 6 5 6 8 8 22 20 18 20 21 25 29 34 40 46 49 46 45 41 36 32 33 32
22 22 21 20 19 18 18 18 17 18 21 21 20 17 16 14 10 11 14 15 13 19 17 21 22 26 29 21 16 10 8 6 6 7 6 7 23 21 22 21 23 28 33 39 38 35 34 32 29 26 27 27 27 25
22 21 20 20 19 19 19 20 20 23 25 21 16 14 8 12 16 12 15 12 18 20 21 19 21 23 26 26 15 9 8 7 7 7 7 16 22 21 20 21 27 31 35 33 29 26 23 21 22 20 18 19 19 18
22 21 19 20 18 19 21 22 22 26 28 23 15 12 13 11 14 27 19 15 19 16 14 7 11 19 19 20 10 6 8 7 7 8 14 21 18 17 19 25 29 29 28 25 22 17 15 15 15 14 16 18 19 20
25 21 18 17 18 19 21 22 25 29 28 21 12 13 19 17 15 13 19 19 17 20 16 14 14 18 18 12 9 9 6 8 9 8 9 6 13 18 20 24 22 19 14 12 15 18 18 17 18 20 23 25 25 27
25 21 17 13 16 17 21 24 30 32 33 21 17 15 18 22 20 17 15 19 16 16 18 18 17 11 12 8 10 12 7 8 6 9 8 19 15 16 19 18 12 6 11 15 18 19 17 17 17 19 19 19 20 20
27 25 20 20 19 20 19 23 31 32 29 17 24 25 15 16 20 22 15 8 16 19 23 25 12 11 8 10 13 13 20 18 13 19 19 14 13 15 15 8 0 6 9 11 14 13 11 16 21 23 23 27 28 29
32 26 21 22 20 16 22 28 29 18 28 34 32 28 25 17 13 14 19 21 18 23 25 29 21 16 13 13 13 13 11 14 15 14 12 12 14 13 9 3 6 5 7 9 10 13 16 15 14 18 20 21 20 21
31 26 22 21 21 21 21 34 34 14 21 37 39 32 28 26 19 14 13 21 25 21 35 32 23 25 26 17 13 12 10 11 12 12 13 14 12 9 5 8 8 8 9 7 9 11 9 11 13 16 16 17 16 16
29 25 21 23 22 24 21 18 33 28 14 20 25 34 29 25 18 22 17 16 20 20 19 17 21 9 6 8 10 11 11 11 12 13 12 10 9 7 7 10 11 11 8 9 10 8 9 9 11 12 13 15 16 16
25 22 21 23 30 28 20 14 19 33 29 16 22 25 31 26 21 20 19 17 21 23 24 23 19 18 18 14 14 13 14 14 13 11 11 8 7 8 10 11 12 10 11 9 7 6 7 9 11 12 13 14 14 14
28 27 26 24 23 23 25 19 19 25 34 26 18 26 29 26 22 19 19 20 20 22 25 24 20 21 19 17 17 17 15 12 10 9 7 9 8 7 14 14 14 11 9 7 4 3 6 9 10 11 12 12 12 12
28 27 27 21 20 22 25 23 23 31 30 19 22 26 26 27 24 21 23 23 21 20 21 23 22 20 19 20 18 13 11 9 7 6 9 11 12 14 16 14 12 10 7 3 1 5 8 9 10 11 11 10 10 10
27 25 26 16 21 21 22 31 27 23 31 20 24 26 20 24 23 25 27 25 20 17 18 18 17 18 18 17 15 13 11 15 13 11 11 12 12 19 11 10 9 8 4 2 5 8 9 10 10 9 9 8 8 8
28 24 15 18 27 35 21 31 28 28 26 26 20 20 18 20 22 24 25 24 20 18 15 16 15 14 13 12 15 19 19 16 15 12 11 11 13 12 10 8 6 3 3 6 8 10 10 10 9 8 7 7 6 6
28 16 14 22 34 30 42 11 23 32 29 25 22 17 19 20 22 16 23 19 17 16 15 14 13 14 15 17 20 20 19 17 16 14 12 10 11 11 10 9 10 9 8 9 10 10 10 10 9 7 6 5 4 5
20 11 19 20 27 35 30 13 20 26 26 19 25 25 20 8 12 11 9 14 13 14 14 16 15 15 17 20 19 17 16 16 15 15 14 12 10 9 9 8 9 9 9 9 10 10 10 9 8 6 4 3 3 5
16 12 25 23 25 32 14 19 20 19 19 14 18 22 17 10 10 9 16 10 13 15 16 20 20 21 23 20 18 18 16 15 13 11 11 12 12 11 9 8 8 9 8 9 10 10 9 8 7 5 4 3 3 5
12 26 31 32 28 22 19 21 15 20 20 22 18 16 17 15 12 11 11 15 16 17 18 19 23 25 26 22 20 20 19 15 12 11 12 12 11 9 9 9 9 9 9 10 10 9 9 7 6 5 4 4 4 5
24 28 27 26 24 21 23 21 20 19 19 17 19 18 15 12 10 11 13 16 18 19 21 22 21 20 20 18 17 17 17 16 14 13 12 10 11 11 10 9 9 9 9 10 9 9 8 7 7 6 6 5 6 7
27 28 28 27 26 17 19 16 16 12 13 15 15 14 13 16 16 15 15 17 19 21 21 22 21 19 18 17 15 13 11 9 8 9 9 9 8 8 8 9 9 10 10 9 9 9 8 8 8 7 6 6 7 7
28 25 25 23 20 16 17 17 17 17 16 16 18 18 17 16 15 17 20 21 21 21 23 19 20 22 22 20 18 16 13 12 13 12 10 8 8 8 9 10 10 10 8 9 9 9 9 9 8 7 7 7 7 8
24 21 18 15 15 15 15 16 16 17 18 18 19 19 19 18 16 20 22 22 20 20 23 25 25 22 18 16 14 13 12 11 9 9 8 8 9 9 10 9 9 9 10 10 9 9 9 9 8 8 7 7 8 10
Wind_Direction
225 216 214 212 208 211 212 202 196 202 210 215 218 220 222 225 226 228 229 238 248 252 256 259 256 261 267 263 269 228 284 251 234 223 235 243 253 254 260 264 250 243 240 239 237 247 265 289 289 253 289 301 299 294
228 223 219 215 210 212 211 209 200 196 203 206 212 219 222 228 233 235 235 238 250 254 250 248 253 250 271 266 238 254 255 256 252 233 236 238 246 258 271 273 273 252 251 253 246 259 273 272 277 282 289 290 293 294
221 220 220 219 213 206 205 206 200 199 201 207 210 217 222 228 233 243 241 236 244 259 274 271 282 235 243 242 237 249 238 248 247 248 246 254 262 269 275 279 280 272 267 270 276 281 287 291 291 289 295 297 294 284
213 213 209 210 211 208 200 205 202 203 206 207 213 218 224 233 238 242 249 248 250 264 276 292 277 253 243 244 252 257 250 249 249 253 261 265 269 273 275 280 283 281 283 285 284 291 303 298 290 298 305 298 298 288
207 208 206 204 209 213 205 203 204 202 206 213 216 223 229 239 245 245 247 248 252 259 272 278 273 169 218 183 274 298 280 227 229 256 264 268 274 278 283 288 281 283 295 288 290 310 308 297 296 299 300 296 296 294
204 201 202 204 206 209 211 210 209 206 210 217 220 225 231 229 233 242 248 253 259 266 273 288 290 250 255 262 265 269 267 255 251 249 267 273 272 276 277 285 294 298 302 301 309 311 303 298 302 305 301 299 299 297
214 206 202 200 204 207 210 213 216 215 215 219 224 223 224 230 238 240 238 248 210 253 239 287 311 303 307 282 261 257 245 239 247 258 262 266 269 266 269 278 319 300 302 302 298 299 298 301 301 302 305 307 303 299
216 209 210 206 204 204 207 211 215 217 219 221 222 222 227 235 242 240 224 226 253 268 255 267 269 275 287 297 279 269 246 242 244 256 263 264 273 269 269 296 307 308 300 300 298 296 298 301 300 300 303 302 301 298
211 216 212 213 211 210 209 210 214 214 214 217 221 225 228 232 237 237 238 235 238 249 248 247 241 272 267 269 270 242 250 239 244 249 258 260 257 252 277 290 293 295 298 297 296 300 300 299 298 299 300 299 299 297
204 218 212 211 214 213 212 210 212 212 209 210 213 220 227 233 241 244 245 243 244 248 244 245 246 242 250 266 268 228 222 228 246 257 259 257 266 280 292 297 306 305 303 304 301 302 303 305 304 303 304 304 304 304
209 209 220 212 213 212 212 210 209 207 203 204 208 218 216 223 213 231 215 212 213 221 233 242 241 245 249 250 242 233 230 222 248 267 235 254 278 304 315 313 308 308 306 304 301 302 304 304 305 310 314 311 314 317
213 217 225 222 215 211 208 207 203 197 182 196 207 212 203 201 204 215 213 213 217 221 231 238 244 237 231 236 230 233 230 232 239 234 246 255 291 303 309 306 308 308 307 305 308 311 311 314 319 322 323 321 322 326
216 215 223 225 218 213 205 203 199 192 188 192 195 195 195 201 217 224 211 202 205 223 240 253 236 216 217 225 219 213 215 222 234 228 240 268 294 301 301 307 310 312 315 320 319 317 322 336 344 344 347 349 350 346
219 221 226 225 218 213 206 201 197 190 186 187 180 196 198 203 215 224 224 234 238 239 218 213 245 197 200 204 206 203 219 217 227 232 247 283 290 299 306 314 319 323 327 327 331 343 5 13 19 25 39 45 48 55
214 220 229 225 214 209 207 201 192 187 184 187 188 208 222 213 220 216 214 235 238 214 215 202 218 198 208 205 205 211 212 225 224 238 273 291 305 307 317 321 328 336 343 15 42 52 54 61 64 67 72 70 69 70
213 219 222 210 207 205 208 201 189 188 192 190 202 212 215 222 221 226 220 232 230 212 205 204 198 203 206 204 201 207 217 225 249 240 265 311 303 313 321 328 341 19 64 66 72 74 69 68 66 70 72 70 70 74
215 218 211 198 214 209 205 199 188 196 201 212 216 205 212 219 221 227 226 225 213 209 205 195 195 194 198 212 217 217 234 251 261 279 290 293 302 313 315 324 37 103 76 80 87 82 64 58 53 56 58 59 56 55
216 217 219 214 211 206 204 187 186 205 223 216 214 208 217 229 243 243 227 227 235 217 214 211 211 211 214 229 234 257 268 271 267 269 281 289 298 303 298 216 166 129 114 118 100 73 64 70 71 66 64 62 58 58
208 209 215 211 206 208 209 195 190 216 234 224 219 214 216 230 245 243 222 214 218 222 215 215 222 231 227 237 255 262 260 257 263 272 280 289 293 285 251 192 178 153 144 136 100 81 80 77 71 61 52 48 37 34
202 207 211 203 201 183 181 200 215 213 219 234 230 224 223 231 244 242 249 223 214 222 222 210 214 217 201 229 244 258 266 269 272 278 287 286 276 251 217 186 164 154 148 106 92 96 81 60 42 34 31 26 22 18
192 193 191 196 190 196 192 192 214 225 213 230 221 215 221 229 230 226 246 236 228 230 238 241 243 244 244 257 271 278 278 275 277 280 276 263 237 223 194 168 160 157 120 109 101 80 51 24 11 9 10 12 6 7
181 182 186 196 204 209 205 190 190 204 214 228 227 206 213 225 225 221 221 227 231 233 232 236 238 240 250 264 273 276 272 267 268 263 249 191 185 164 155 150 148 129 126 129 117 53 11 358 355 358 359 358 1 3
180 189 192 194 210 209 202 194 203 209 211 221 206 200 214 220 225 222 216 224 234 237 238 238 240 242 251 264 266 260 246 243 205 175 164 171 171 157 145 141 136 142 140 134 357 344 338 340 345 348 350 355 357 360
186 190 184 192 205 201 207 205 205 181 202 192 196 200 210 219 221 221 230 236 240 241 237 237 239 241 245 249 247 230 207 175 164 158 148 149 164 166 140 149 163 169 179 246 311 320 326 330 334 338 343 348 354 9
186 185 190 200 206 204 210 206 221 191 192 196 192 194 199 207 207 216 230 235 237 235 236 228 230 231 229 224 193 173 164 162 158 160 157 158 154 160 171 180 187 202 267 296 306 313 318 323 323 327 333 341 358 18
187 191 200 205 206 209 201 214 170 180 191 186 192 191 199 209 215 225 236 232 230 225 221 221 214 205 184 173 168 166 171 174 170 168 175 184 184 185 193 212 229 251 271 293 303 312 318 319 317 319 325 336 359 17
201 206 205 189 197 208 215 193 181 187 185 192 199 191 192 194 207 215 216 205 214 209 198 189 183 181 174 168 167 176 180 178 178 181 184 190 204 215 231 246 254 264 278 291 301 308 311 311 311 313 317 326 355 8
215 208 179 182 187 197 190 176 172 184 189 193 205 199 206 211 219 227 212 206 197 193 189 186 182 175 173 171 179 184 183 184 190 209 222 218 228 239 242 248 264 277 287 294 300 304 303 302 302 300 300 314 335 338
183 172 166 171 186 191 184 185 187 194 199 207 210 210 203 207 204 203 200 198 194 187 189 192 189 188 188 192 193 194 193 199 208 211 213 216 221 231 245 256 265 275 284 294 298 295 293 287 280 277 278 288 301 313
169 162 166 176 184 190 199 202 210 216 213 210 208 210 203 188 191 190 192 195 192 187 184 185 190 194 197 198 200 201 203 203 206 216 228 241 251 255 254 256 266 276 284 291 289 289 282 271 262 258 261 273 292 308
167 165 171 176 184 186 192 193 196 192 199 203 202 204 209 204 200 200 196 191 187 188 188 189 190 192 185 177 174 180 192 206 221 232 241 244 244 248 256 266 273 279 285 284 283 277 264 254 248 248 258 275 291 309
177 181 183 184 188 191 192 194 195 193 190 191 198 201 202 205 211 205 202 195 193 194 191 189 182 176 176 181 191 202 217 225 227 226 225 232 243 258 267 271 277 279 278 279 273 261 251 245 245 252 262 276 293 309
186 191 191 197 197 192 189 189 192 196 200 204 205 208 209 209 211 204 202 198 193 194 190 185 181 183 193 204 213 221 227 227 230 226 233 248 259 264 271 277 277 278 282 277 266 256 248 245 247 255 267 281 297 309